,,,PA_Meas_PMT16A,,PR_Meas_QMR101_102,,RH_Meas_QMH101,,SR_Meas_QMS101,,TA_Meas_QMH101,,GenWind,,GenWind,
date,time,status,PA,status,PR,status,RH,status,SR,status,TA,status,DirAvg,status,SpdAvg,
2011-07-21, 00:00:04,VALID,1003.33,VALID,0,VALID,98.7559,VALID,0,VALID,25.9602,VALID,357,VALID,0,
2011-07-21, 00:01:04,VALID,1003.31,VALID,0,VALID,98.6872,VALID,0,VALID,25.9817,VALID,350,VALID,0,
2011-07-21, 00:02:04,VALID,1003.33,VALID,0,VALID,99.0763,VALID,0,VALID,25.9797,VALID,360,VALID,0,
2011-07-21, 00:03:04,VALID,1003.31,VALID,0,VALID,98.4736,VALID,0,VALID,25.9622,VALID,347,VALID,0,
2011-07-21, 00:04:04,VALID,1003.3,VALID,0,VALID,98.5575,VALID,0,VALID,25.9622,VALID,354,VALID,0,
2011-07-21, 00:05:04,VALID,1003.33,VALID,0,VALID,98.5728,VALID,0,VALID,25.9408,VALID,347,VALID,0,
2011-07-21, 00:06:04,VALID,1003.3,VALID,0,VALID,98.7559,VALID,0,VALID,25.9622,VALID,350,VALID,0,
2011-07-21, 00:07:04,VALID,1003.32,VALID,0,VALID,98.2905,VALID,0,VALID,25.9427,VALID,355,VALID,0,
2011-07-21, 00:08:04,VALID,1003.28,VALID,0,VALID,98.5956,VALID,0,VALID,25.9408,VALID,337,VALID,0,
2011-07-21, 00:09:04,VALID,1003.3,VALID,0,VALID,98.2981,VALID,0,VALID,25.9427,VALID,348,VALID,0,
2011-07-21, 00:10:04,VALID,1003.29,VALID,0,VALID,98.1227,VALID,0,VALID,25.9427,VALID,346,VALID,0,
2011-07-21, 00:11:04,VALID,1003.28,VALID,0,VALID,98.3973,VALID,0,VALID,25.9427,VALID,355,VALID,0,
2011-07-21, 00:12:04,VALID,1003.3,VALID,0,VALID,98.1455,VALID,0,VALID,25.9427,VALID,343,VALID,0,
2011-07-21, 00:13:04,VALID,1003.3,VALID,0,VALID,97.9625,VALID,0,VALID,25.9427,VALID,351,VALID,0,
2011-07-21, 00:14:04,VALID,1003.28,VALID,0,VALID,98.4888,VALID,0,VALID,25.9427,VALID,4,VALID,0,
2011-07-21, 00:15:04,VALID,1003.28,VALID,0,VALID,98.3744,VALID,0,VALID,25.8804,VALID,4,VALID,0,
2011-07-21, 00:16:04,VALID,1003.28,VALID,0,VALID,98.6719,VALID,0.100563,VALID,25.8823,VALID,346,VALID,0,
2011-07-21, 00:17:04,VALID,1003.25,VALID,0,VALID,98.7406,VALID,0.100563,VALID,25.8629,VALID,358,VALID,0,
2011-07-21, 00:18:04,VALID,1003.27,VALID,0,VALID,99.9307,VALID,0,VALID,25.8629,VALID,352,VALID,0,
2011-07-21, 00:19:04,VALID,1003.22,VALID,0,VALID,99.9078,VALID,0.100563,VALID,25.8629,VALID,358,VALID,0,
2011-07-21, 00:20:04,VALID,1003.23,VALID,0,VALID,100.182,VALID,0.100563,VALID,25.8025,VALID,355,VALID,0,
2011-07-21, 00:21:04,VALID,1003.22,VALID,0,VALID,100.976,VALID,0.100563,VALID,25.783,VALID,355,VALID,0,
2011-07-21, 00:22:04,VALID,1003.24,VALID,0,VALID,102.654,VALID,0.100563,VALID,25.746,VALID,355,VALID,0,
2011-07-21, 00:23:04,VALID,1003.23,VALID,0,VALID,104,VALID,0.100563,VALID,25.7285,VALID,355,VALID,0,
2011-07-21, 00:24:04,VALID,1003.21,VALID,0,INVALID,114.982,VALID,0.100563,VALID,25.6486,VALID,355,VALID,0,
2011-07-21, 00:25:04,VALID,1003.23,VALID,0,INVALID,118.126,VALID,0,VALID,25.6097,VALID,356,VALID,0,
2011-07-21, 00:26:04,VALID,1003.22,VALID,0,INVALID,129.805,VALID,0.100563,VALID,25.5493,VALID,357,VALID,0,
2011-07-21, 00:27:04,VALID,1003.24,VALID,0,INVALID,149.229,VALID,0.100563,VALID,25.5318,VALID,357,VALID,0,
2011-07-21, 00:28:04,VALID,1003.19,VALID,0,INVALID,149.618,VALID,0.100563,VALID,25.4734,VALID,357,VALID,0,
2011-07-21, 00:29:04,VALID,1003.19,VALID,0,INVALID,163.548,VALID,0.100563,VALID,25.413,VALID,357,VALID,0,
2011-07-21, 00:30:04,VALID,1003.17,VALID,0,INVALID,163.563,VALID,0,VALID,25.3974,VALID,357,VALID,0,
2011-07-21, 00:31:04,VALID,1003.16,VALID,0,INVALID,163.624,VALID,0,VALID,25.3779,VALID,357,VALID,0,
2011-07-21, 00:32:04,VALID,1003.15,VALID,0,INVALID,163.639,VALID,0,VALID,25.3176,VALID,357,VALID,0,
2011-07-21, 00:33:04,VALID,1003.16,VALID,0,INVALID,163.617,VALID,0,VALID,25.2611,VALID,357,VALID,0,
2011-07-21, 00:34:04,VALID,1003.13,VALID,0,INVALID,163.624,VALID,0,VALID,25.1832,VALID,357,VALID,0,
2011-07-21, 00:35:04,VALID,1003.14,VALID,0,INVALID,163.655,VALID,0,VALID,25.0839,VALID,357,VALID,0,
2011-07-21, 00:36:04,VALID,1003.15,VALID,0,INVALID,163.67,VALID,0,VALID,25.045,VALID,357,VALID,0,
2011-07-21, 00:37:04,VALID,1003.16,VALID,0,INVALID,163.678,VALID,0,VALID,25.0079,VALID,357,VALID,0,
2011-07-21, 00:38:04,VALID,1003.14,VALID,0,INVALID,163.678,VALID,0,VALID,24.969,VALID,357,VALID,0,
2011-07-21, 00:39:04,VALID,1003.13,VALID,0,INVALID,163.67,VALID,0,VALID,24.93,VALID,357,VALID,0,
2011-07-21, 00:40:04,VALID,1003.13,VALID,0,INVALID,163.685,VALID,0,VALID,24.8911,VALID,357,VALID,0,
2011-07-21, 00:41:04,VALID,1003.1,VALID,0,INVALID,163.685,VALID,0,VALID,24.8327,VALID,357,VALID,0,
2011-07-21, 00:42:04,VALID,1003.06,VALID,0,INVALID,163.678,VALID,0,VALID,24.7937,VALID,357,VALID,0,
2011-07-21, 00:43:04,VALID,1003.03,VALID,0,INVALID,163.662,VALID,0,VALID,24.7937,VALID,357,VALID,0,
2011-07-21, 00:44:04,VALID,1003.03,VALID,0,INVALID,163.647,VALID,0,VALID,24.7743,VALID,357,VALID,0,
2011-07-21, 00:45:04,VALID,1003.01,VALID,0,INVALID,163.685,VALID,0.100563,VALID,24.7529,VALID,357,VALID,0,
2011-07-21, 00:46:04,VALID,1003,VALID,0,INVALID,163.678,VALID,0.100563,VALID,24.7529,VALID,357,VALID,0,
2011-07-21, 00:47:04,VALID,1003.01,VALID,0,INVALID,163.662,VALID,0.100563,VALID,24.7529,VALID,357,VALID,0,
2011-07-21, 00:48:04,VALID,1003,VALID,0,INVALID,163.685,VALID,0.100563,VALID,24.7335,VALID,357,VALID,0,
2011-07-21, 00:49:04,VALID,1003.01,VALID,0,INVALID,163.662,VALID,0.100563,VALID,24.7335,VALID,357,VALID,0,
2011-07-21, 00:50:04,VALID,1003.02,VALID,0,INVALID,163.693,VALID,0.100563,VALID,24.7121,VALID,357,VALID,0,
2011-07-21, 00:51:04,VALID,1003.03,VALID,0,INVALID,163.685,VALID,0.100563,VALID,24.7529,VALID,357,VALID,0,
2011-07-21, 00:52:04,VALID,1003.02,VALID,0,INVALID,163.701,VALID,0.100563,VALID,24.7316,VALID,2,VALID,0,
2011-07-21, 00:53:04,VALID,1003.02,VALID,0,INVALID,163.685,VALID,0.100563,VALID,24.751,VALID,2,VALID,0,
2011-07-21, 00:54:04,VALID,1003.03,VALID,0,INVALID,163.693,VALID,0.100563,VALID,24.7724,VALID,2,VALID,0,
2011-07-21, 00:55:04,VALID,1003.01,VALID,0,INVALID,163.685,VALID,0.100563,VALID,24.751,VALID,2,VALID,0,
2011-07-21, 00:56:04,VALID,1003,VALID,0,INVALID,163.708,VALID,0.100563,VALID,24.751,VALID,1,VALID,0,
2011-07-21, 00:57:04,VALID,1002.98,VALID,0,INVALID,163.693,VALID,0.100563,VALID,24.8113,VALID,360,VALID,0,
2011-07-21, 00:58:04,VALID,1002.98,VALID,0,INVALID,163.662,VALID,0.100563,VALID,24.8095,VALID,360,VALID,0,
2011-07-21, 00:59:04,VALID,1002.98,VALID,0,INVALID,163.662,VALID,0.100563,VALID,24.8484,VALID,360,VALID,0,
2011-07-21, 01:00:04,VALID,1002.99,VALID,0,INVALID,163.67,VALID,0,VALID,24.8503,VALID,360,VALID,0,
2011-07-21, 01:01:04,VALID,1002.96,VALID,0,INVALID,163.67,VALID,0,VALID,24.8716,VALID,360,VALID,0,
2011-07-21, 01:02:04,VALID,1002.95,VALID,0,INVALID,163.693,VALID,0,VALID,24.8308,VALID,360,VALID,0,
2011-07-21, 01:03:04,VALID,1002.9,VALID,0,INVALID,163.685,VALID,0,VALID,24.8716,VALID,360,VALID,0,
2011-07-21, 01:04:04,VALID,1002.92,VALID,0,INVALID,163.662,VALID,0,VALID,24.8716,VALID,360,VALID,0,
2011-07-21, 01:05:04,VALID,1002.92,VALID,0,INVALID,163.678,VALID,0,VALID,24.8522,VALID,359,VALID,0,
2011-07-21, 01:06:04,VALID,1002.91,VALID,0,INVALID,163.662,VALID,0,VALID,24.9125,VALID,359,VALID,0,
2011-07-21, 01:07:04,VALID,1002.91,VALID,0,INVALID,163.693,VALID,0,VALID,24.93,VALID,359,VALID,0,
2011-07-21, 01:08:04,VALID,1002.88,VALID,0,INVALID,163.701,VALID,0,VALID,24.9282,VALID,359,VALID,0,
2011-07-21, 01:09:04,VALID,1002.89,VALID,0,INVALID,163.678,VALID,0,VALID,24.969,VALID,359,VALID,0,
2011-07-21, 01:10:04,VALID,1002.89,VALID,0,INVALID,163.655,VALID,0,VALID,24.9671,VALID,359,VALID,0,
2011-07-21, 01:11:04,VALID,1002.88,VALID,0,INVALID,163.701,VALID,0,VALID,24.9476,VALID,359,VALID,0,
2011-07-21, 01:12:05,VALID,1002.88,VALID,0,INVALID,163.678,VALID,0,VALID,24.9282,VALID,359,VALID,0,
2011-07-21, 01:13:05,VALID,1002.87,VALID,0,INVALID,163.693,VALID,0,VALID,24.9495,VALID,359,VALID,0,
2011-07-21, 01:14:05,VALID,1002.91,VALID,0,INVALID,163.678,VALID,0,VALID,24.9087,VALID,359,VALID,0,
2011-07-21, 01:15:05,VALID,1002.9,VALID,0,INVALID,163.701,VALID,0,VALID,24.9106,VALID,360,VALID,0,
2011-07-21, 01:16:05,VALID,1002.92,VALID,0,INVALID,163.693,VALID,0,VALID,24.8911,VALID,4,VALID,0,
2011-07-21, 01:17:05,VALID,1002.91,VALID,0,INVALID,163.685,VALID,0,VALID,24.8308,VALID,4,VALID,0,
2011-07-21, 01:18:05,VALID,1002.92,VALID,0,INVALID,163.662,VALID,0,VALID,24.8113,VALID,4,VALID,0,
2011-07-21, 01:19:05,VALID,1002.95,VALID,0,INVALID,163.678,VALID,0,VALID,24.7937,VALID,4,VALID,0,
2011-07-21, 01:20:05,VALID,1002.93,VALID,0,INVALID,163.685,VALID,0,VALID,24.7743,VALID,4,VALID,0,
2011-07-21, 01:21:05,VALID,1002.95,VALID,0,INVALID,163.701,VALID,0,VALID,24.7548,VALID,4,VALID,0,
2011-07-21, 01:22:05,VALID,1002.92,VALID,0,INVALID,163.723,VALID,0,VALID,24.7548,VALID,4,VALID,0,
2011-07-21, 01:23:05,VALID,1002.92,VALID,0,INVALID,163.693,VALID,0,VALID,24.7353,VALID,4,VALID,0,
2011-07-21, 01:24:05,VALID,1002.9,VALID,0,INVALID,163.693,VALID,0,VALID,24.7159,VALID,4,VALID,0,
2011-07-21, 01:25:05,VALID,1002.92,VALID,0,INVALID,163.693,VALID,0,VALID,24.7159,VALID,4,VALID,0,
2011-07-21, 01:26:05,VALID,1002.93,VALID,0,INVALID,163.708,VALID,0,VALID,24.7159,VALID,4,VALID,0,
2011-07-21, 01:27:05,VALID,1002.95,VALID,0,INVALID,163.723,VALID,0,VALID,24.7353,VALID,341,VALID,0,
2011-07-21, 01:28:05,VALID,1002.95,VALID,0,INVALID,163.662,VALID,0,VALID,24.7548,VALID,339,VALID,0,
2011-07-21, 01:29:05,VALID,1002.92,VALID,0,INVALID,163.678,VALID,0,VALID,24.7548,VALID,339,VALID,0,
2011-07-21, 01:30:05,VALID,1002.96,VALID,0,INVALID,163.701,VALID,0,VALID,24.7548,VALID,339,VALID,0,
2011-07-21, 01:31:05,VALID,1002.96,VALID,0,INVALID,163.701,VALID,0,VALID,24.7353,VALID,348,VALID,0,
2011-07-21, 01:32:05,VALID,1002.96,VALID,0,INVALID,163.716,VALID,0,VALID,24.7335,VALID,348,VALID,0,
2011-07-21, 01:33:05,VALID,1002.97,VALID,0,INVALID,163.678,VALID,0,VALID,24.7529,VALID,348,VALID,0,
2011-07-21, 01:34:05,VALID,1002.96,VALID,0,INVALID,163.678,VALID,0,VALID,24.7529,VALID,348,VALID,0,
2011-07-21, 01:35:05,VALID,1002.94,VALID,0,INVALID,163.708,VALID,0,VALID,24.8132,VALID,348,VALID,0,
2011-07-21, 01:36:05,VALID,1002.94,VALID,0,INVALID,163.67,VALID,0,VALID,24.8308,VALID,347,VALID,0,
2011-07-21, 01:37:05,VALID,1002.94,VALID,0,INVALID,163.67,VALID,0,VALID,24.8697,VALID,345,VALID,0,
2011-07-21, 01:38:05,VALID,1002.93,VALID,0,INVALID,163.685,VALID,0,VALID,24.9087,VALID,357,VALID,0,
2011-07-21, 01:39:05,VALID,1002.94,VALID,0,INVALID,163.662,VALID,0,VALID,24.9885,VALID,354,VALID,0,
2011-07-21, 01:40:05,VALID,1002.95,VALID,0,INVALID,163.647,VALID,0,VALID,25.0663,VALID,352,VALID,0,
2011-07-21, 01:41:05,VALID,1002.94,VALID,0,INVALID,163.647,VALID,0,VALID,25.0839,VALID,352,VALID,0,
2011-07-21, 01:42:05,VALID,1002.93,VALID,0,INVALID,163.662,VALID,0,VALID,25.1637,VALID,352,VALID,0,
2011-07-21, 01:43:05,VALID,1002.93,VALID,0,INVALID,163.647,VALID,0,VALID,25.1813,VALID,352,VALID,0,
2011-07-21, 01:44:05,VALID,1002.94,VALID,0,INVALID,163.639,VALID,0,VALID,25.2202,VALID,352,VALID,0,
2011-07-21, 01:45:05,VALID,1002.94,VALID,0,INVALID,163.647,VALID,0,VALID,25.2397,VALID,352,VALID,0,
2011-07-21, 01:46:05,VALID,1002.94,VALID,0,INVALID,163.655,VALID,0,VALID,25.2592,VALID,351,VALID,0,
2011-07-21, 01:47:05,VALID,1002.95,VALID,0,INVALID,163.655,VALID,0,VALID,25.2786,VALID,352,VALID,0,
2011-07-21, 01:48:05,VALID,1002.97,VALID,0,INVALID,163.639,VALID,0,VALID,25.2806,VALID,351,VALID,0,
2011-07-21, 01:49:05,VALID,1002.94,VALID,0,INVALID,163.647,VALID,0,VALID,25.2183,VALID,351,VALID,0,
2011-07-21, 01:50:05,VALID,1002.96,VALID,0,INVALID,163.632,VALID,0,VALID,25.2397,VALID,346,VALID,0,
2011-07-21, 01:51:05,VALID,1002.98,VALID,0,INVALID,163.647,VALID,0,VALID,25.339,VALID,353,VALID,0,
2011-07-21, 01:52:05,VALID,1003.01,VALID,0,INVALID,163.639,VALID,0,VALID,25.339,VALID,353,VALID,0,
2011-07-21, 01:53:05,VALID,1003,VALID,0,INVALID,163.632,VALID,0,VALID,25.2572,VALID,353,VALID,0,
2011-07-21, 01:54:05,VALID,1003,VALID,0,INVALID,163.632,VALID,0,VALID,25.2611,VALID,353,VALID,0,
2011-07-21, 01:55:05,VALID,1002.98,VALID,0,INVALID,163.662,VALID,0,VALID,25.2007,VALID,353,VALID,0,
2011-07-21, 01:56:05,VALID,1002.98,VALID,0,INVALID,163.67,VALID,0,VALID,25.1618,VALID,353,VALID,0,
2011-07-21, 01:57:05,VALID,1002.99,VALID,0,INVALID,163.678,VALID,0,VALID,25.1229,VALID,353,VALID,0,
2011-07-21, 01:58:05,VALID,1002.91,VALID,0,INVALID,163.678,VALID,0,VALID,25.0858,VALID,353,VALID,0,
2011-07-21, 01:59:05,VALID,1002.92,VALID,0,INVALID,163.67,VALID,0,VALID,25.006,VALID,353,VALID,0,
2011-07-21, 02:00:05,VALID,1002.9,VALID,0,INVALID,163.67,VALID,0,VALID,24.9671,VALID,353,VALID,0,
2011-07-21, 02:01:05,VALID,1002.89,VALID,0,INVALID,163.67,VALID,0,VALID,24.9495,VALID,353,VALID,0,
2011-07-21, 02:02:05,VALID,1002.91,VALID,0,INVALID,163.716,VALID,0,VALID,24.8892,VALID,353,VALID,0,
2011-07-21, 02:03:05,VALID,1002.9,VALID,0,INVALID,163.685,VALID,0,VALID,24.8503,VALID,353,VALID,0,
2011-07-21, 02:04:05,VALID,1002.87,VALID,0,INVALID,163.678,VALID,0,VALID,24.8113,VALID,353,VALID,0,
2011-07-21, 02:05:05,VALID,1002.87,VALID,0,INVALID,163.678,VALID,0,VALID,24.7919,VALID,353,VALID,0,
2011-07-21, 02:06:05,VALID,1002.89,VALID,0,INVALID,163.693,VALID,0,VALID,24.7529,VALID,353,VALID,0,
2011-07-21, 02:07:05,VALID,1002.9,VALID,0,INVALID,163.67,VALID,0,VALID,24.7335,VALID,353,VALID,0,
2011-07-21, 02:08:05,VALID,1002.89,VALID,0,INVALID,163.739,VALID,0,VALID,24.6945,VALID,353,VALID,0,
2011-07-21, 02:09:05,VALID,1002.9,VALID,0,INVALID,163.685,VALID,0,VALID,24.675,VALID,353,VALID,0,
2011-07-21, 02:10:05,VALID,1002.86,VALID,0,INVALID,163.693,VALID,0,VALID,24.6574,VALID,353,VALID,0,
2011-07-21, 02:11:05,VALID,1002.87,VALID,0,INVALID,163.701,VALID,0,VALID,24.5972,VALID,353,VALID,0,
2011-07-21, 02:12:05,VALID,1002.84,VALID,0,INVALID,163.67,VALID,0,VALID,24.599,VALID,353,VALID,0,
2011-07-21, 02:13:05,VALID,1002.85,VALID,0,INVALID,163.685,VALID,0,VALID,24.5777,VALID,353,VALID,0,
2011-07-21, 02:14:05,VALID,1002.84,VALID,0,INVALID,163.708,VALID,0,VALID,24.5796,VALID,353,VALID,0,
2011-07-21, 02:15:05,VALID,1002.83,VALID,0,INVALID,163.701,VALID,0,VALID,24.5388,VALID,353,VALID,0,
2011-07-21, 02:16:05,VALID,1002.8,VALID,0,INVALID,163.701,VALID,0,VALID,24.5796,VALID,353,VALID,0,
2011-07-21, 02:17:05,VALID,1002.78,VALID,0,INVALID,163.678,VALID,0,VALID,24.5388,VALID,353,VALID,0,
2011-07-21, 02:18:05,VALID,1002.79,VALID,0,INVALID,163.708,VALID,0,VALID,24.5406,VALID,353,VALID,0,
2011-07-21, 02:19:05,VALID,1002.8,VALID,0,INVALID,163.685,VALID,0,VALID,24.5193,VALID,353,VALID,0,
2011-07-21, 02:20:05,VALID,1002.79,VALID,0,INVALID,163.693,VALID,0,VALID,24.5193,VALID,353,VALID,0,
2011-07-21, 02:21:05,VALID,1002.81,VALID,0,INVALID,163.723,VALID,0,VALID,24.5193,VALID,353,VALID,0,
2011-07-21, 02:22:05,VALID,1002.8,VALID,0,INVALID,163.716,VALID,0,VALID,24.5193,VALID,353,VALID,0,
2011-07-21, 02:23:05,VALID,1002.78,VALID,0,INVALID,163.693,VALID,0,VALID,24.5406,VALID,353,VALID,0,
2011-07-21, 02:24:05,VALID,1002.75,VALID,0,INVALID,163.731,VALID,0,VALID,24.5406,VALID,358,VALID,0,
2011-07-21, 02:25:05,VALID,1002.75,VALID,0,INVALID,163.693,VALID,0,VALID,24.5193,VALID,358,VALID,0,
2011-07-21, 02:26:05,VALID,1002.71,VALID,0,INVALID,163.708,VALID,0,VALID,24.5212,VALID,358,VALID,0,
2011-07-21, 02:27:05,VALID,1002.71,VALID,0,INVALID,163.701,VALID,0,VALID,24.5017,VALID,358,VALID,0,
2011-07-21, 02:28:05,VALID,1002.72,VALID,0,INVALID,163.708,VALID,0,VALID,24.459,VALID,358,VALID,0,
2011-07-21, 02:29:05,VALID,1002.72,VALID,0,INVALID,163.746,VALID,0,VALID,24.4822,VALID,358,VALID,0,
2011-07-21, 02:30:05,VALID,1002.72,VALID,0,INVALID,163.693,VALID,0,VALID,24.4609,VALID,358,VALID,0,
2011-07-21, 02:31:05,VALID,1002.7,VALID,0,INVALID,163.716,VALID,0,VALID,24.4609,VALID,358,VALID,0,
2011-07-21, 02:32:05,VALID,1002.68,VALID,0,INVALID,163.746,VALID,0,VALID,24.4609,VALID,358,VALID,0,
2011-07-21, 02:33:05,VALID,1002.68,VALID,0,INVALID,163.716,VALID,0,VALID,24.4628,VALID,358,VALID,0,
2011-07-21, 02:34:05,VALID,1002.65,VALID,0,INVALID,163.723,VALID,0,VALID,24.422,VALID,358,VALID,0,
2011-07-21, 02:35:05,VALID,1002.64,VALID,0,INVALID,163.723,VALID,0,VALID,24.4201,VALID,358,VALID,0,
2011-07-21, 02:36:05,VALID,1002.63,VALID,0,INVALID,163.716,VALID,0,VALID,24.4609,VALID,358,VALID,0,
2011-07-21, 02:37:05,VALID,1002.62,VALID,0,INVALID,163.708,VALID,0,VALID,24.4804,VALID,358,VALID,0,
2011-07-21, 02:38:05,VALID,1002.6,VALID,0,INVALID,163.746,VALID,0,VALID,24.4998,VALID,358,VALID,0,
2011-07-21, 02:39:05,VALID,1002.6,VALID,0,INVALID,163.731,VALID,0,VALID,24.4998,VALID,358,VALID,0,
2011-07-21, 02:40:05,VALID,1002.62,VALID,0,INVALID,163.701,VALID,0,VALID,24.4785,VALID,358,VALID,0,
2011-07-21, 02:41:05,VALID,1002.58,VALID,0,INVALID,163.708,VALID,0,VALID,24.4804,VALID,358,VALID,0,
2011-07-21, 02:42:05,VALID,1002.59,VALID,0,INVALID,163.723,VALID,0,VALID,24.4609,VALID,4,VALID,0,
2011-07-21, 02:43:05,VALID,1002.57,VALID,0,INVALID,163.716,VALID,0,VALID,24.4609,VALID,4,VALID,0,
2011-07-21, 02:44:05,VALID,1002.57,VALID,0,INVALID,163.708,VALID,0,VALID,24.4609,VALID,4,VALID,0,
2011-07-21, 02:45:05,VALID,1002.56,VALID,0,INVALID,163.693,VALID,0.100563,VALID,24.4998,VALID,4,VALID,0,
2011-07-21, 02:46:05,VALID,1002.57,VALID,0,INVALID,163.708,VALID,0,VALID,24.4998,VALID,4,VALID,0,
2011-07-21, 02:47:05,VALID,1002.57,VALID,0,INVALID,163.708,VALID,0,VALID,24.4998,VALID,4,VALID,0,
2011-07-21, 02:48:05,VALID,1002.55,VALID,0,INVALID,163.716,VALID,0.100563,VALID,24.5212,VALID,4,VALID,0,
2011-07-21, 02:49:05,VALID,1002.57,VALID,0,INVALID,163.701,VALID,0.100563,VALID,24.5193,VALID,4,VALID,0,
2011-07-21, 02:50:05,VALID,1002.55,VALID,0,INVALID,163.731,VALID,0,VALID,24.5388,VALID,4,VALID,0,
2011-07-21, 02:51:05,VALID,1002.55,VALID,0,INVALID,163.716,VALID,0.100563,VALID,24.5582,VALID,4,VALID,0,
2011-07-21, 02:52:05,VALID,1002.55,VALID,0,INVALID,163.716,VALID,0,VALID,24.5564,VALID,4,VALID,0,
2011-07-21, 02:53:05,VALID,1002.55,VALID,0,INVALID,163.739,VALID,0,VALID,24.5796,VALID,4,VALID,0,
2011-07-21, 02:54:05,VALID,1002.52,VALID,0,INVALID,163.678,VALID,0.100563,VALID,24.5388,VALID,4,VALID,0,
2011-07-21, 02:55:05,VALID,1002.52,VALID,0,INVALID,163.716,VALID,0,VALID,24.5193,VALID,4,VALID,0,
2011-07-21, 02:56:05,VALID,1002.55,VALID,0,INVALID,163.685,VALID,0.100563,VALID,24.4998,VALID,4,VALID,0,
2011-07-21, 02:57:05,VALID,1002.54,VALID,0,INVALID,163.723,VALID,0,VALID,24.4998,VALID,4,VALID,0,
2011-07-21, 02:58:05,VALID,1002.56,VALID,0,INVALID,163.693,VALID,0,VALID,24.5193,VALID,3,VALID,0,
2011-07-21, 02:59:05,VALID,1002.53,VALID,0,INVALID,163.693,VALID,0,VALID,24.4998,VALID,1,VALID,0,
2011-07-21, 03:00:05,VALID,1002.59,VALID,0,INVALID,163.739,VALID,0,VALID,24.5406,VALID,1,VALID,0,
2011-07-21, 03:01:05,VALID,1002.59,VALID,0,INVALID,163.708,VALID,0,VALID,24.4998,VALID,1,VALID,0,
2011-07-21, 03:02:05,VALID,1002.6,VALID,0,INVALID,163.701,VALID,0.100563,VALID,24.5193,VALID,1,VALID,0,
2011-07-21, 03:03:05,VALID,1002.61,VALID,0,INVALID,163.701,VALID,0,VALID,24.4998,VALID,1,VALID,0,
2011-07-21, 03:04:05,VALID,1002.59,VALID,0,INVALID,163.739,VALID,0,VALID,24.5017,VALID,1,VALID,0,
2011-07-21, 03:05:05,VALID,1002.59,VALID,0,INVALID,163.708,VALID,0,VALID,24.5017,VALID,1,VALID,0,
2011-07-21, 03:06:05,VALID,1002.58,VALID,0,INVALID,163.701,VALID,0,VALID,24.4822,VALID,1,VALID,0,
2011-07-21, 03:07:05,VALID,1002.58,VALID,0,INVALID,163.708,VALID,0,VALID,24.4609,VALID,1,VALID,0,
2011-07-21, 03:08:05,VALID,1002.55,VALID,0,INVALID,163.701,VALID,0,VALID,24.4414,VALID,1,VALID,0,
2011-07-21, 03:09:05,VALID,1002.58,VALID,0,INVALID,163.716,VALID,0,VALID,24.4201,VALID,1,VALID,0,
2011-07-21, 03:10:05,VALID,1002.54,VALID,0,INVALID,163.739,VALID,0,VALID,24.4006,VALID,1,VALID,0,
2011-07-21, 03:11:05,VALID,1002.54,VALID,0,INVALID,163.731,VALID,0,VALID,24.4025,VALID,1,VALID,0,
2011-07-21, 03:12:05,VALID,1002.56,VALID,0,INVALID,163.723,VALID,0,VALID,24.4025,VALID,1,VALID,0,
2011-07-21, 03:13:05,VALID,1002.56,VALID,0,INVALID,163.708,VALID,0,VALID,24.383,VALID,1,VALID,0,
2011-07-21, 03:14:05,VALID,1002.57,VALID,0,INVALID,163.693,VALID,0.100563,VALID,24.3636,VALID,1,VALID,0,
2011-07-21, 03:15:05,VALID,1002.6,VALID,0,INVALID,163.716,VALID,0.100563,VALID,24.3617,VALID,360,VALID,0,
2011-07-21, 03:16:05,VALID,1002.57,VALID,0,INVALID,163.739,VALID,0,VALID,24.4043,VALID,357,VALID,0,
2011-07-21, 03:17:05,VALID,1002.55,VALID,0,INVALID,163.723,VALID,0,VALID,24.383,VALID,347,VALID,0,
2011-07-21, 03:18:05,VALID,1002.54,VALID,0,INVALID,163.701,VALID,0,VALID,24.422,VALID,348,VALID,0,
2011-07-21, 03:19:05,VALID,1002.53,VALID,0,INVALID,163.716,VALID,0,VALID,24.4414,VALID,348,VALID,0,
2011-07-21, 03:20:05,VALID,1002.52,VALID,0,INVALID,163.701,VALID,0,VALID,24.4822,VALID,349,VALID,0,
2011-07-21, 03:21:05,VALID,1002.51,VALID,0,INVALID,163.731,VALID,0,VALID,24.4804,VALID,341,VALID,0,
2011-07-21, 03:22:05,VALID,1002.49,VALID,0,INVALID,163.678,VALID,0,VALID,24.599,VALID,350,VALID,0,
2011-07-21, 03:23:05,VALID,1002.54,VALID,0,INVALID,163.685,VALID,0,VALID,24.6361,VALID,348,VALID,0,
2011-07-21, 03:24:05,VALID,1002.53,VALID,0,INVALID,163.701,VALID,0,VALID,24.6945,VALID,349,VALID,0,
2011-07-21, 03:25:05,VALID,1002.53,VALID,0,INVALID,163.678,VALID,0,VALID,24.7529,VALID,349,VALID,0,
2011-07-21, 03:26:05,VALID,1002.53,VALID,0,INVALID,163.678,VALID,0,VALID,24.7919,VALID,347,VALID,0,
2011-07-21, 03:27:05,VALID,1002.5,VALID,0,INVALID,163.678,VALID,0,VALID,24.8308,VALID,354,VALID,0,
2011-07-21, 03:28:05,VALID,1002.52,VALID,0,INVALID,163.716,VALID,0.100563,VALID,24.8892,VALID,348,VALID,0,
2011-07-21, 03:29:05,VALID,1002.51,VALID,0,INVALID,163.678,VALID,0,VALID,24.9495,VALID,353,VALID,0,
2011-07-21, 03:30:05,VALID,1002.47,VALID,0,INVALID,163.67,VALID,0,VALID,24.9671,VALID,350,VALID,0,
2011-07-21, 03:31:05,VALID,1002.44,VALID,0,INVALID,163.685,VALID,0,VALID,25.0255,VALID,335,VALID,0,
2011-07-21, 03:32:05,VALID,1002.45,VALID,0,INVALID,163.67,VALID,0,VALID,25.1034,VALID,354,VALID,0,
2011-07-21, 03:33:05,VALID,1002.43,VALID,0,INVALID,163.632,VALID,0.100563,VALID,25.1423,VALID,354,VALID,0,
2011-07-21, 03:34:05,VALID,1002.44,VALID,0,INVALID,163.662,VALID,0,VALID,25.1618,VALID,340,VALID,0,
2011-07-21, 03:35:05,VALID,1002.45,VALID,0,INVALID,163.655,VALID,0,VALID,25.1813,VALID,349,VALID,0,
2011-07-21, 03:36:05,VALID,1002.48,VALID,0,INVALID,163.67,VALID,0.100563,VALID,25.1813,VALID,346,VALID,0,
2011-07-21, 03:37:05,VALID,1002.49,VALID,0,INVALID,163.655,VALID,0,VALID,25.2027,VALID,336,VALID,0,
2011-07-21, 03:38:05,VALID,1002.51,VALID,0,INVALID,163.639,VALID,0,VALID,25.2007,VALID,355,VALID,0,
2011-07-21, 03:39:05,VALID,1002.51,VALID,0,INVALID,163.647,VALID,0,VALID,25.2202,VALID,311,VALID,0,
2011-07-21, 03:40:05,VALID,1002.52,VALID,0,INVALID,163.639,VALID,0,VALID,25.2202,VALID,358,VALID,0,
2011-07-21, 03:41:05,VALID,1002.52,VALID,0,INVALID,163.662,VALID,0,VALID,25.2397,VALID,359,VALID,0,
2011-07-21, 03:42:05,VALID,1002.5,VALID,0,INVALID,163.655,VALID,0,VALID,25.2611,VALID,352,VALID,0,
2011-07-21, 03:43:05,VALID,1002.52,VALID,0,INVALID,163.632,VALID,0,VALID,25.2397,VALID,343,VALID,0,
2011-07-21, 03:44:05,VALID,1002.53,VALID,0,INVALID,163.655,VALID,0,VALID,25.2397,VALID,345,VALID,0,
2011-07-21, 03:45:05,VALID,1002.54,VALID,0,INVALID,163.639,VALID,0,VALID,25.2416,VALID,3,VALID,0,
2011-07-21, 03:46:05,VALID,1002.54,VALID,0,INVALID,163.639,VALID,0,VALID,25.2397,VALID,8,VALID,0,
2011-07-21, 03:47:04,VALID,1002.52,VALID,0,INVALID,163.647,VALID,0,VALID,25.2592,VALID,351,VALID,0,
2011-07-21, 03:48:04,VALID,1002.5,VALID,0,INVALID,163.647,VALID,0,VALID,25.2786,VALID,356,VALID,0,
2011-07-21, 03:49:04,VALID,1002.49,VALID,0,INVALID,163.632,VALID,0,VALID,25.2786,VALID,346,VALID,0,
2011-07-21, 03:50:04,VALID,1002.5,VALID,0,INVALID,163.662,VALID,0,VALID,25.2981,VALID,337,VALID,0,
2011-07-21, 03:51:04,VALID,1002.48,VALID,0,INVALID,163.632,VALID,0,VALID,25.339,VALID,346,VALID,0,
2011-07-21, 03:52:04,VALID,1002.48,VALID,0,INVALID,163.67,VALID,0,VALID,25.2981,VALID,331,VALID,0,
2011-07-21, 03:53:04,VALID,1002.5,VALID,0,INVALID,163.639,VALID,0,VALID,25.3584,VALID,7,VALID,0,
2011-07-21, 03:54:04,VALID,1002.48,VALID,0,INVALID,163.632,VALID,0,VALID,25.337,VALID,332,VALID,0,